STARLINK-33581 (62784 NORAD) Tracking and Keplerian Element Data

This shows tracking and keplerian element data for the satellite.

Feedback or suggestion? Click here.




ElementValue
Catalog62784
NameSTARLINK-33581
Epoch Orbit5231
Epoch Day354.23821588
Epoch Year2025
RAAN331.7166
Inclination53.1602
Eccentricity0.0001386
Argument of Perigee90.8651
Mean Anonmoly269.2508
Mean Motion15.30199677
Decay Rate0.00024451
L11 62784U 25015AC 25354.23821588 .00024451 00000+0 83497-3 0 9995
L22 62784 53.1602 331.7166 0001386 90.8651 269.2508 15.30199677 52311



Live tracking and technical data element details for STARLINK-33581 (NORAD 62784). STARLINK-33581 can be tracked NOW for your location showing map with azimuth and elevation plus other details from your city location.







IsCatalogInMostPopularTable: catalog: 62784, numindb: 274
Update: records affected: 1



GetName: 62784 STARLINK-33581

Hit Count: updated at: Sun, 08 Mar 2026 00:27:07 GMT